EUTELSAT 8 WEST B

Last updated on Thu Oct 30 2025 00:02:50 GMT+0000 (Coordinated Universal Time)

1 40875U 15039B 25302.32677693 -.00000056 00000+0 00000+0 0 9997 2 40875 0.0702 9.6763 0003971 213.5025 284.3733 1.00271864 37340
UTC large
Height (km)
Speed (km/s)
/
Latitude / Longitude
Inclination (degrees)
Orbital Period (minutes)
Azimuth
Elevation
Range (km)
Doppler Factor

Next 0 passes for location: London (51.5072 / 0.1276)

Sorry there are no passes over London.